Weather in Ladan

Ukraine / Chernihiv Region     50°31′02″N   32°35′10″E
temp.,
°C
wind,
m/s
gust,
m/s
humid.,
%
clouds,
%
prec.,
mm/h
press.,
hPa
HPBL,
m
27 october, wed
wed2700:00+3ssw5126327 0.0 1028234
03:00+3ssw512655 0.0 1027244
06:00+2ssw512820 0.0 1025243
09:00+3ssw512860 0.0 1025329
12:00+9sw69681 0.0 1024701
15:00+11wsw565444 0.0 1023844
18:00+9w3558100 0.0 1023133
21:00+7wnw346989 0.0 102477
28 october, thu
thu2800:00+5w3386100 0.0 102544
03:00+5wsw3690100 0.0 102490
06:00+5wsw4989100 0.0 1023172
09:00+7wsw5128196 0.0 1023345
12:00+12w696876 0.0 1022601
15:00+12wnw6970100 0.0 1021684
18:00+11wnw4977100 0.1 1022431
21:00+9nw399132 0.1 1024278
29 october, fri
fri2900:00+9nw349013 0.0 1025101
03:00+7n33945 0.0 102652
06:00+6nne33955 0.0 102748
09:00+6ne24885 0.0 1028139
12:00+11e33600 0.0 1029528
15:00+12e23511 0.0 1029768
18:00+8e22670 0.0 102917
21:00+7ese33750 0.0 103044
30 october, sat
sat3000:00+6se34850 0.0 103162
03:00+5se35890 0.0 103167
06:00+4se34905 0.0 103152
09:00+5sse36855 0.0 1032156
12:00+11sse46580 0.0 1032498
15:00+13sse45510 0.0 1031818
18:00+9sse34695 0.0 103145
21:00+7sse34760 0.0 103161
31 october, sun
sun3100:00+6sse34760 0.0 103162
03:00+5sse34780 0.0 103152
05:00+5se34780 0.0 103061
08:00+5se37750 0.0 1030159
11:00+11sse57590 0.0 1029534
14:00+13se45520 0.0 1027785
17:00+9ese46650 0.0 102690
20:00+7ese49690 0.0 1026149